This demonstration page uses our WeatherBlox Daily Observations layout. Learn more.

38.89511, -77.03637

Hourly Observations for June 8, 2020

Temp ( °F °C ) Dew Point ( °F °C ) Humidity (%) Winds ( mph kmh ) Pressure ( in mb ) Visibility ( mi km ) Precip ( " mm )
12:52 am 00:52 Mostly Clear 70 21.1 56 13.3 61 61 SW 5 7 30.01 1016 10 16.0934 0 0
1:52 am 01:52 Mostly Clear 68 20 57 13.9 68 68 WSW 3 6 30.01 1016 10 16.0934 0 0
2:52 am 02:52 Mostly Clear 66 18.9 58 14.4 75 75 N 6 9 30.01 1016 10 16.0934 0 0
3:52 am 03:52 Clear 66 18.9 56 13.3 70 70 NE 12 19 30.01 1016 10 16.0934 0 0
4:52 am 04:52 Mostly Clear 66 18.9 55 12.8 68 68 NNE 8 13 30.02 1017 10 16.0934 0 0
5:52 am 05:52 Partly Cloudy 64 17.8 54 12.2 70 70 NE 8 13 30.03 1017 10 16.0934 0 0
6:52 am 06:52 Partly Cloudy 65 18.3 50 10 59 59 NE 10 17 30.07 1018 10 16.0934 0 0
7:52 am 07:52 Partly Cloudy 68 20 49 9.4 51 51 NE 9 15 30.08 1019 10 16.0934 0 0
8:52 am 08:52 Mostly Sunny 71 21.7 48 8.9 44 44 NE 10 17 30.09 1019 10 16.0934 0 0
9:52 am 09:52 Mostly Sunny 73 22.8 48 8.9 41 41 NNE 5 7 30.1 1019 10 16.0934 0 0
10:52 am 10:52 Sunny 76 24.4 49 9.4 39 39 N 6 9 30.09 1019 10 16.0934 0 0
11:52 am 11:52 Sunny 76 24.4 49 9.4 39 39 VRB 5 7 30.09 1019 10 16.0934 0 0
12:52 pm 12:52 Mostly Sunny 77 25 50 10 39 39 ESE 6 9 30.07 1018 10 16.0934 0 0
1:52 pm 13:52 Mostly Sunny 81 27.2 53 11.7 38 38 NNW 10 17 30.06 1018 10 16.0934 0 0
2:52 pm 14:52 Mostly Sunny 81 27.2 53 11.7 38 38 NNE 10 17 30.04 1017 10 16.0934 0 0
3:52 pm 15:52 Mostly Sunny 82 27.8 53 11.7 37 37 NNE 10 17 30.02 1017 10 16.0934 0 0
4:52 pm 16:52 Mostly Sunny 82 27.8 54 12.2 38 38 NNW 13 20 30.01 1016 10 16.0934 0 0
5:52 pm 17:52 Mostly Sunny 82 27.8 52 11.1 35 35 N 10 17 29.99 1016 10 16.0934 0 0
6:52 pm 18:52 Mostly Sunny 81 27.2 52 11.1 37 37 N 7 11 29.98 1015 10 16.0934 0 0
7:52 pm 19:52 Mostly Sunny 81 27.2 48 8.9 32 32 N 3 6 29.99 1016 10 16.0934 0 0
8:52 pm 20:52 Mostly Clear 75 23.9 57 13.9 54 54 SE 8 13 30 1016 10 16.0934 0 0
9:52 pm 21:52 Mostly Clear 74 23.3 55 12.8 52 52 SSE 5 7 30.02 1017 10 16.0934 0 0
10:52 pm 22:52 Mostly Clear 72 22.2 53 11.7 52 52 SE 5 7 30.03 1017 10 16.0934 0 0
11:52 pm 23:52 Partly Cloudy 72 22.2 54 12.2 53 53 Calm 30.03 1017 10 16.0934 0 0

Powered by AerisWeather